loading
DOY 175 | 2024-06-23T17:16:58Z
Showing default

OPS 6582 (TRANSIT 5B-5), 965

Orbit data source: Space-Track

OPS 6582 (TRANSIT 5B-5), 965 is a payload satellite owned by USN BuWeps (US) in LEO that was launched on Sun, 13 Dec 1964 UTC via a Thor Ablestar launch vehicle from the Air Force Western Test Range (AFWTR). Payloads include a variety of satellites, spacecraft, and rockets equipped with specific instruments for various scientific and technological missions. These include communications satellites like Starlink; space stations such as the ISS; scientific satellites like the Hubble; Earth observation satellites from companies like Planet Labs, Umbra, and HawkEye 360; GPS; miniature CubeSats for education and research; and military/defense satellites.

Loading next visibility...
Loading greatness...
OPS 6582 (TRANSIT 5B-5) details
NORAD ID965
COSPAR ID
1964-083D
Orbit
LEO
Last TLE update1 day ago
Origin
Flag of USUSN BuWeps (US)
ManufacturerNAFI
BusTransit 5
MotorUnknown
Mass~54 kg wet, ~54 kg dry
Launch date (UTC)
1964-12-13 (60 years ago)
Launch vehicle
Thor Ablestar
Launch site
Air Force Western Test Range (AFWTR)
Object type
Payload
Rocket body
Debris
Radar Cross Section1.1 m², Medium (>0.1 m² and < 1m²)
Predictive object data (real-time)
Latitude55.11818°
Longitude61.36729°
Altitude1,085.573 km
Speed7.3 km/s
Apparent Right ascension14h 56m 27s
Apparent Declination13° 36' 37"
Sunlit
Object is in daylight
Predictive observer data (real-time)
Local Sidereal Time04:25:57
Azimuth26.039° NE
Elevation-32.571°
Doppler factor1
Orbital elements
Apogee1,073.43 km
Perigee1,014.7 km
Semi-major axis7,422.202 km
Eccentricity0.0039564
Inclination90.0437°
RAAN198.3237°
Arg. of periapsis235.1272°
True anomaly241.60252°
Mean anomaly242.0019°
Mean motion3.39425 °/min
BSTAR0.000074388
Period106.06 mins
Definitive object data (Epoch: 2024-06-22T15:02:26.783Z)
Latitude63.3552°
Longitude-118.48858°
Altitude1,071.892 km
Speed7.315 km/s
True Right ascension01h 13m 38s
True Declination63° 13' 23"
Sunlit
Object was in daylight at TLE epoch
TLE from 1 day ago
0 OPS 6582 (TRANSIT 5B-5)
1 00965U 64083D   24174.62669888  .00000062  00000-0  74388-4 0  9994
2 00965  90.0437 198.3237 0039564 235.1272 242.0019 13.56887511945345
Epoch: 2024-06-22T15:02Z
No data available

OPS 6582 (TRANSIT 5B-5) Visibility forecast

Observer location: 39.9160978°, -105.1181434, 0m alt.

OPS 6582 (TRANSIT 5B-5) is not visible in the next 10 days
Span
Click to sort rows by Start time (UTC) header in descending order
Start Az.
Max El. time (UTC)
Max El. Az.
Max El.
End time (UTC)
End Az.